Caldwell, ID

7:56 PM MST on January 23, 2018 (GMT -0700)
Caldwell Industrial

Weather History for KEUL - October, 2013

Change the Weather History Date:

Saturday, October 12, 2013

  Actual Average (KBOI) Record (KBOI)
Temperature  
Mean Temperature 50 °F -  
Max Temperature 62 °F 65 °F 82 °F (1944)
Min Temperature 37 °F 40 °F 25 °F (1891)
Degree Days  
Heating Degree Days 16    
Moisture  
Dew Point 29 °F    
Average Humidity 47    
Maximum Humidity 62    
Minimum Humidity 29    
Precipitation  
Precipitation 0.00 in - - ()
Sea Level Pressure  
Sea Level Pressure 29.97 in    
Wind  
Wind Speed 5 mph (WNW)    
Max Wind Speed 13 mph    
Max Gust Speed -    
Visibility 10 miles    
Events      
Averages and records for this station are not official NWS values.
T = Trace of Precipitation, MM = Missing Value Source: NWS Daily Summary

Daily Weather History Graph

Daily Weather History Graph

Search for Another Location

Airport or City:

Trip Planner

Search our weather history database for the weather conditions in past years. The results will help you decide how hot, cold, wet, or windy it might be!

Date:

Astronomy

Oct. 12, 2013 Rise Set
Actual Time 7:57 AM MDT 7:07 PM MDT
Civil Twilight 7:28 AM MDT 7:36 PM MDT
Nautical Twilight 6:55 AM MDT 8:09 PM MDT
Astronomical Twilight 6:22 AM MDT 8:42 PM MDT
Moon 3:31 PM MDT (10/12) 12:54 AM MDT (10/12)
Length of Visible Light 12h 07m
Length of Day
11h 10m
First Quarter, 59% of the Moon is Illuminated
Oct 12
First Quarter
Oct 18
Full
Oct 26
Last Quarter
Nov 3
New
Nov 9
First Quarter

Hourly Weather History & Observations

Time (MDT) Temp. Windchill Dew Point Humidity Pressure Visibility Wind Dir Wind Speed Gust Speed Precip Events Conditions
12:15 AM 42.8 °F 40.1 °F 26.6 °F 53% 30.02 in 10.0 mi East 4.6 mph - N/A   Clear
12:35 AM 42.8 °F 40.1 °F 28.4 °F 57% 30.02 in 10.0 mi East 4.6 mph - N/A   Clear
12:55 AM 42.8 °F 41.1 °F 28.4 °F 57% 30.01 in 10.0 mi East 3.5 mph - N/A   Clear
1:15 AM 42.8 °F 39.3 °F 28.4 °F 57% 30.01 in 10.0 mi East 5.8 mph - N/A   Clear
1:35 AM 42.8 °F 39.3 °F 26.6 °F 53% 30.01 in 10.0 mi East 5.8 mph - N/A   Clear
1:55 AM 42.8 °F 39.3 °F 26.6 °F 53% 30.01 in 10.0 mi East 5.8 mph - N/A   Clear
2:15 AM 41.0 °F 37.1 °F 26.6 °F 57% 30.01 in 10.0 mi East 5.8 mph - N/A   Clear
2:55 AM 42.8 °F 40.1 °F 26.6 °F 53% 30.02 in 10.0 mi East 4.6 mph - N/A   Clear
3:15 AM 42.8 °F 39.3 °F 26.6 °F 53% 30.01 in 10.0 mi East 5.8 mph - N/A   Clear
3:35 AM 42.8 °F 41.1 °F 26.6 °F 53% 30.01 in 10.0 mi East 3.5 mph - N/A   Clear
3:55 AM 41.0 °F 39.0 °F 26.6 °F 57% 30.00 in 10.0 mi East 3.5 mph - N/A   Clear
4:15 AM 41.0 °F 39.0 °F 26.6 °F 57% 30.00 in 10.0 mi East 3.5 mph - N/A   Scattered Clouds
4:35 AM 42.8 °F 40.1 °F 26.6 °F 53% 29.99 in 10.0 mi East 4.6 mph - N/A   Mostly Cloudy
4:55 AM 41.0 °F - 26.6 °F 57% 29.99 in 10.0 mi Calm Calm - N/A   Scattered Clouds
5:15 AM 42.8 °F 39.3 °F 26.6 °F 53% 29.99 in 10.0 mi SE 5.8 mph - N/A   Clear
5:35 AM 41.0 °F 36.4 °F 26.6 °F 57% 29.98 in 10.0 mi SSE 6.9 mph - N/A   Clear
5:55 AM 41.0 °F 36.4 °F 24.8 °F 53% 29.98 in 10.0 mi SE 6.9 mph - N/A   Clear
6:15 AM 39.2 °F - 26.6 °F 61% 29.99 in 10.0 mi Calm Calm - N/A   Clear
6:35 AM 39.2 °F - 26.6 °F 61% 29.99 in 10.0 mi Calm Calm - N/A   Clear
6:55 AM 39.2 °F - 24.8 °F 56% 29.99 in 10.0 mi Calm Calm - N/A   Partly Cloudy
7:15 AM 39.2 °F - 24.8 °F 56% 29.99 in 10.0 mi Calm Calm - N/A   Clear
7:35 AM 39.2 °F - 24.8 °F 56% 30.00 in 10.0 mi Calm Calm - N/A   Scattered Clouds
7:55 AM 37.4 °F - 24.8 °F 60% 29.99 in 10.0 mi Calm Calm - N/A   Partly Cloudy
8:15 AM 39.2 °F - 24.8 °F 56% 29.99 in 10.0 mi Calm Calm - N/A   Partly Cloudy
8:35 AM 37.4 °F - 24.8 °F 60% 30.00 in 10.0 mi Calm Calm - N/A   Clear
8:55 AM 39.2 °F - 26.6 °F 61% 30.00 in 10.0 mi Calm Calm - N/A   Partly Cloudy
9:15 AM 42.8 °F - 28.4 °F 57% 30.00 in 10.0 mi Calm Calm - N/A   Clear
9:35 AM 42.8 °F 41.1 °F 26.6 °F 53% 30.00 in 10.0 mi South 3.5 mph - N/A   Clear
9:55 AM 44.6 °F 42.2 °F 26.6 °F 49% 29.99 in 10.0 mi SSE 4.6 mph - N/A   Clear
10:15 AM 48.2 °F - 26.6 °F 43% 29.99 in 10.0 mi SSE 8.1 mph - N/A   Clear
10:35 AM 50.0 °F - 26.6 °F 40% 29.99 in 10.0 mi South 8.1 mph - N/A   Clear
10:55 AM 51.8 °F - 28.4 °F 41% 29.98 in 10.0 mi South 6.9 mph - N/A   Clear
11:15 AM 51.8 °F - 28.4 °F 41% 29.98 in 10.0 mi South 5.8 mph - N/A   Clear
11:35 AM 53.6 °F - 28.4 °F 38% 29.98 in 10.0 mi South 4.6 mph - N/A   Clear
11:55 AM 55.4 °F - 28.4 °F 36% 29.98 in 10.0 mi South 5.8 mph - N/A   Partly Cloudy
12:15 PM 55.4 °F - 30.2 °F 38% 29.97 in 10.0 mi SW 4.6 mph - N/A   Scattered Clouds
12:35 PM 55.4 °F - 30.2 °F 38% 29.97 in 10.0 mi Calm Calm - N/A   Partly Cloudy
12:55 PM 57.2 °F - 30.2 °F 36% 29.96 in 10.0 mi South 3.5 mph - N/A   Clear
1:15 PM 59.0 °F - 30.2 °F 34% 29.96 in 10.0 mi West 6.9 mph - N/A   Clear
1:35 PM 57.2 °F - 30.2 °F 36% 29.95 in 10.0 mi West 3.5 mph - N/A   Clear
1:55 PM 59.0 °F - 30.2 °F 34% 29.94 in 10.0 mi SW 4.6 mph - N/A   Clear
2:15 PM 60.8 °F - 30.2 °F 31% 29.93 in 10.0 mi SW 3.5 mph - N/A   Clear
2:35 PM 60.8 °F - 30.2 °F 31% 29.93 in 10.0 mi Calm Calm - N/A   Clear
2:55 PM 60.8 °F - 28.4 °F 29% 29.92 in 10.0 mi Calm Calm - N/A   Clear
3:15 PM 60.8 °F - 30.2 °F 31% 29.92 in 10.0 mi WNW 3.5 mph - N/A   Clear
3:35 PM 62.6 °F - 32.0 °F 32% 29.91 in 10.0 mi NNW 6.9 mph - N/A   Clear
3:55 PM 60.8 °F - 32.0 °F 34% 29.91 in 10.0 mi WNW 5.8 mph - N/A   Clear
4:15 PM 60.8 °F - 32.0 °F 34% 29.91 in 10.0 mi NW 6.9 mph - N/A   Clear
4:35 PM 60.8 °F - 32.0 °F 34% 29.91 in 10.0 mi North 5.8 mph - N/A   Clear
4:55 PM 60.8 °F - 30.2 °F 31% 29.91 in 10.0 mi NW 5.8 mph - N/A   Clear
5:15 PM 60.8 °F - 30.2 °F 31% 29.90 in 10.0 mi NW 8.1 mph - N/A   Clear
5:35 PM 59.0 °F - 30.2 °F 34% 29.90 in 10.0 mi NW 6.9 mph - N/A   Scattered Clouds
5:55 PM 59.0 °F - 32.0 °F 36% 29.91 in 10.0 mi NNW 6.9 mph - N/A   Scattered Clouds
6:15 PM 59.0 °F - 30.2 °F 34% 29.91 in 10.0 mi NW 5.8 mph - N/A   Partly Cloudy
6:35 PM 57.2 °F - 30.2 °F 36% 29.91 in 10.0 mi NNW 6.9 mph - N/A   Clear
6:55 PM 57.2 °F - 32.0 °F 38% 29.91 in 10.0 mi NNW 8.1 mph - N/A   Mostly Cloudy
7:35 PM 55.4 °F - 32.0 °F 41% 29.92 in 10.0 mi NNW 6.9 mph - N/A   Overcast
7:55 PM 55.4 °F - 32.0 °F 41% 29.92 in 10.0 mi NW 5.8 mph - N/A   Overcast
8:15 PM 53.6 °F - 32.0 °F 44% 29.92 in 10.0 mi NW 5.8 mph - N/A   Overcast
8:35 PM 53.6 °F - 32.0 °F 44% 29.93 in 10.0 mi WNW 8.1 mph - N/A   Overcast
8:55 PM 53.6 °F - 32.0 °F 44% 29.93 in 10.0 mi WNW 9.2 mph - N/A   Mostly Cloudy
9:15 PM 53.6 °F - 30.2 °F 41% 29.93 in 10.0 mi NW 11.5 mph - N/A   Mostly Cloudy
9:35 PM 51.8 °F - 32.0 °F 47% 29.94 in 10.0 mi WNW 8.1 mph - N/A   Overcast
9:55 PM 51.8 °F - 30.2 °F 44% 29.95 in 10.0 mi NW 10.4 mph - N/A   Overcast
10:15 PM 50.0 °F - 32.0 °F 50% 29.95 in 10.0 mi NW 11.5 mph - N/A   Overcast
10:35 PM 48.2 °F - 33.8 °F 58% 29.96 in 10.0 mi WNW 11.5 mph - N/A   Overcast
10:55 PM 48.2 °F - 33.8 °F 58% 29.97 in 10.0 mi WNW 9.2 mph - N/A   Overcast
11:15 PM 48.2 °F - 33.8 °F 58% 29.97 in 10.0 mi WNW 10.4 mph - N/A   Overcast
11:35 PM 48.2 °F - 33.8 °F 58% 29.97 in 10.0 mi WNW 12.7 mph - N/A   Overcast
11:55 PM 46.4 °F 40.7 °F 33.8 °F 62% 29.97 in 10.0 mi WNW 12.7 mph - N/A   Mostly Cloudy